{"data":{"norad_id":55277,"intl_designator":"2023-010J","name":"STARLINK-5299","alt_names":[],"object_type":"PAYLOAD","status":"ACTIVE","operator":null,"country":"US","launch_date":"2023-01-19","launch_site_code":"AFWTR","launch_vehicle":null,"mission":null,"orbit_class":"UNKNOWN","rcs_meters":null,"size_class":null,"mass_kg":null,"dimensions":null,"purposes":["comms"],"wikipedia_slug":null,"has_3d_model":false,"image_url":null,"decayed_at":null,"tle_current":{"epoch":"2026-05-25T04:28:50.392704Z","epoch_age_seconds":69643,"freshness":"FRESH","line1":"1 55277U 23010J   26145.18669436 -.00000021  00000+0  60205-5 0  9994","line2":"2 55277  69.9990 211.6083 0003705 269.4365  90.6369 14.98330242184249","mean_motion":14.98330242,"eccentricity":0.0003705,"inclination_deg":69.999,"raan_deg":211.6083,"arg_perigee_deg":269.4365,"mean_anomaly_deg":90.6369,"bstar":6.0205e-6,"rev_number":18424,"period_min":96.106983603151,"perigee_km":569.48009639065,"apogee_km":574.63018876831,"semimajor_km":6950.1921425795,"source":"CELESTRAK","updated_at":"2026-05-25T13:38:17.732189Z"}}}